Regional Weather Roundup
Issued by NWS

Home | Current Version | Previous Version | Graphics & Text | Print | Product List | Glossary On
Versions: 1 2 3 4 5 6 7 8 9 10 11 12 13 14 15 16 17 18 19 20 21 22 23 24 25 26 27 28 29 30 31 32 33 34 35 36 37 38 39 40 41 42 43 44 45 46 47 48 49 50
000
ASUS43 KMKX 221211
RWRWI

WISCONSIN REGIONAL WEATHER ROUNDUP
NATIONAL WEATHER SERVICE MILWAUKEE/SULLIVAN WI
600 AM CST WED NOV 22 2017

NOTE: "FAIR" INDICATES FEW OR NO CLOUDS BELOW 12,000 FEET WITH NO
SIGNIFICANT WEATHER AND/OR OBSTRUCTIONS TO VISIBILITY.

WIZ001-002-006>008-014>016-023>028-221300-
NORTHWEST WISCONSIN

CITY           SKY/WX    TMP DP  RH WIND       PRES   REMARKS
SUPERIOR ARPT  CLOUDY    13   9  86 SW3       30.30R
6HR MIN TEMP:  13; 6HR MAX TEMP:  18;

ASHLAND        CLOUDY    18  11  74 W9        30.29R WCI   7
6HR MIN TEMP:  17; 6HR MAX TEMP:  20;

HAYWARD        CLOUDY    13   8  81 CALM      30.27R
6HR MIN TEMP:  12; 6HR MAX TEMP:  17; 6HR PCP: TRACE;

SIREN          CLOUDY    10   7  87 CALM      30.30S
6HR MIN TEMP:   8; 6HR MAX TEMP:  15;

CUMBERLAND     CLOUDY    12   9  85 CALM      30.28S
RICE LAKE      CLOUDY    11   9  89 SW3       30.31S
6HR MIN TEMP:  11; 6HR MAX TEMP:  16;

CHETEK           N/A      9   7  91 CALM      30.30S
6HR MIN TEMP:   9; 6HR MAX TEMP:  16;

LADYSMITH      CLOUDY    12   9  88 CALM      30.28F
6HR MIN TEMP:  12; 6HR MAX TEMP:  19;

EAU CLAIRE     CLOUDY    10   6  84 CALM      30.31F
6HR MIN TEMP:   9; 6HR MAX TEMP:  17;

MENOMONIE      CLOUDY    14  10  84 CALM      30.33S
6HR MIN TEMP:  14; 6HR MAX TEMP:  18;

NEW RICHMOND   CLOUDY    11   8  87 CALM      30.31S
6HR MIN TEMP:  11; 6HR MAX TEMP:  16;

OSCEOLA        CLEAR     13   9  85 CALM      30.34F
6HR MIN TEMP:  12; 6HR MAX TEMP:  17;

$$

WIZ003>005-009-010-017-018-221300-
NORTH CENTRAL WISCONSIN

CITY           SKY/WX    TMP DP  RH WIND       PRES   REMARKS
MANITOWISH WTR FLURRIES  15  11  85 W6        30.21S WCI   6
6HR MIN TEMP:  15; 6HR MAX TEMP:  17;

ARBOR VITAE    FLURRIES  19  14  80 W3        30.21F
6HR MIN TEMP:  19; 6HR MAX TEMP:  19;

WOODRUFF       FLURRIES  19  14  80 W3        30.21F
6HR MIN TEMP:  19; 6HR MAX TEMP:  19;

RHINELANDER    CLOUDY    18  12  77 W7        30.22R WCI   9
6HR MIN TEMP:  17; 6HR MAX TEMP:  19; 6HR PCP: TRACE;

EAGLE RIVER    CLOUDY    17  11  77 W7        30.20R WCI   8
6HR MIN TEMP:  17; 6HR MAX TEMP:  19;

LAND O LAKES   FLURRIES  18  14  83 W3        30.22R
6HR MIN TEMP:  18; 6HR MAX TEMP:  20;

PHILLIPS       CLOUDY    12   9  86 CALM      30.23S
6HR MIN TEMP:  12; 6HR MAX TEMP:  17;

TOMAHAWK       CLOUDY    13   9  83 CALM      30.24S
6HR MIN TEMP:  13; 6HR MAX TEMP:  17;

MEDFORD        CLOUDY    15   8  73 CALM      30.24F
6HR MIN TEMP:  14; 6HR MAX TEMP:  17;

MERRILL        CLOUDY    15   9  75 W3        30.25F
6HR MIN TEMP:  15; 6HR MAX TEMP:  19;

$$

WIZ029-030-035-036-043>047-221300-
CENTRAL WISCONSIN

CITY           SKY/WX    TMP DP  RH WIND       PRES   REMARKS
WAUSAU         CLOUDY    16   9  74 W5        30.25S WCI   9
6HR MIN TEMP:  15; 6HR MAX TEMP:  20;

MOSINEE        PTCLDY    16  10  79 W5        30.27S WCI   9
MARSHFIELD     CLOUDY    16   8  71 CALM      30.25F
6HR MIN TEMP:  14; 6HR MAX TEMP:  18;

STEVENS POINT  CLOUDY    15   9  75 CALM      30.28F
6HR MIN TEMP:  15; 6HR MAX TEMP:  18;

WAUPACA        CLEAR     19  12  75 W3        30.30F
6HR MIN TEMP:  19; 6HR MAX TEMP:  23;

WAUTOMA        CLOUDY    14  10  84 CALM      30.31F
6HR MIN TEMP:  12; 6HR MAX TEMP:  19;

WISC RAPIDS    CLOUDY    13   9  84 W3        30.30F
6HR MIN TEMP:  13; 6HR MAX TEMP:  18;

CAMP DOUGLAS   CLEAR     10   7  85 SW3       30.31F
$$

WIZ011>013-019>022-031-037>040-048>050-221300-
NORTHEAST WISCONSIN

CITY           SKY/WX    TMP DP  RH WIND       PRES   REMARKS
ANTIGO         FLURRIES  15  11  84 W3        30.23R
6HR MIN TEMP:  15; 6HR MAX TEMP:  19;

SHAWANO        CLOUDY    24  14  66 W5        30.27F WCI  18
6HR MIN TEMP:  22; 6HR MAX TEMP:  26;

OCONTO         CLOUDY    24  12  60 CALM      30.28F
6HR MIN TEMP:  24; 6HR MAX TEMP:  25;

STURGEON BAY   FLURRIES  25  14  63 NW9       30.27S WCI  15
6HR MIN TEMP:  25; 6HR MAX TEMP:  25; 6HR PCP: TRACE;

GREEN BAY      CLOUDY    24  16  71 NW3       30.29S
6HR MIN TEMP:  23; 6HR MAX TEMP:  25;

MANITOWOC      CLOUDY    24  15  68 W6        30.30S WCI  17
6HR MIN TEMP:  24; 6HR MAX TEMP:  25;

APPLETON       PTCLDY    19  12  73 W6        30.27S WCI  11
CLINTONVILLE   CLOUDY    21  12  68 W6        30.29S WCI  14
OSHKOSH        CLEAR     16  11  80 W5        30.29S WCI   9
6HR MIN TEMP:  16; 6HR MAX TEMP:  20;

$$

WIZ032>034-041-042-053>061-221300-
SOUTHWEST WISCONSIN

CITY           SKY/WX    TMP DP  RH WIND       PRES   REMARKS
LA CROSSE      CLOUDY    16   9  74 N8        30.35S WCI   5
6HR MIN TEMP:  15; 6HR MAX TEMP:  25;

SPARTA         PTCLDY    10   9  92 S3        30.33F
6HR MIN TEMP:  10; 6HR MAX TEMP:  21;

VIROQUA        CLOUDY    15  13  91 CALM      30.30R
6HR MIN TEMP:  15; 6HR MAX TEMP:  20;

BOSCOBEL       CLOUDY    15  10  80 CALM      30.36F
6HR MIN TEMP:  13; 6HR MAX TEMP:  24;

PRAIRIE DU CHI CLOUDY    17  10  76 CALM      30.36R
6HR MIN TEMP:  17; 6HR MAX TEMP:  22;

PLATTEVILLE    CLOUDY    17  14  89 CALM      30.32F
6HR MIN TEMP:  16; 6HR MAX TEMP:  21;

$$

WIZ056-057-062-063-064-067-068-221300-
SOUTH CENTRAL WISCONSIN

CITY           SKY/WX    TMP DP  RH WIND       PRES   REMARKS
REEDSBURG      CLOUDY    17  10  75 NW3       30.32S
6HR MIN TEMP:  17; 6HR MAX TEMP:  21;

BARABOO/DELLS  CLOUDY    15  10  80 CALM      30.31S
6HR MIN TEMP:  15; 6HR MAX TEMP:  21;

LONE ROCK      CLOUDY    12  10  92 CALM      30.34S
6HR MIN TEMP:  12; 6HR MAX TEMP:  23;

MINERAL POINT  CLOUDY    19  16  86 CALM      30.30F
MADISON        CLOUDY    18  11  74 CALM      30.32R
6HR MIN TEMP:  17; 6HR MAX TEMP:  22;

MIDDLETON      CLOUDY    17  13  82 W3        30.33S
6HR MIN TEMP:  17; 6HR MAX TEMP:  23;

WATERTOWN      CLEAR     17  13  85 W3        30.31R
6HR MIN TEMP:  17; 6HR MAX TEMP:  22;

MONROE         CLOUDY    19  14  79 NW7       30.31R WCI  10
JANESVILLE     CLOUDY    19  14  79 CALM      30.33R
$$

WIZ051-052-058>065-066-070>072-221300-
SOUTHEAST WISCONSIN

CITY           SKY/WX    TMP DP  RH WIND       PRES   REMARKS
MILWAUKEE      PTCLDY    21  13  71 NW7       30.31S WCI  12
6HR MIN TEMP:  21; 6HR MAX TEMP:  27;

WAUKESHA       CLEAR     18  12  79 NW6       30.31S WCI   9
MILWAUKEE/TIMM CLEAR     19  10  68 NW3       30.32R
RACINE         CLEAR     20  14  77 W6        30.33R WCI  12
6HR MIN TEMP:  19; 6HR MAX TEMP:  25;

BURLINGTON     CLEAR     20  17  88 NW5       30.31S WCI  14
6HR MIN TEMP:  20; 6HR MAX TEMP:  24;

KENOSHA        CLEAR     18  12  77 NW6       30.32R WCI  10
6HR MIN TEMP:  18; 6HR MAX TEMP:  24;

FOND DU LAC    FLURRIES  17  10  74 W6        30.30S WCI   9
6HR MIN TEMP:  16; 6HR MAX TEMP:  20; 6HR PCP: TRACE;

SHEBOYGAN      MOCLDY    20  14  77 NW5       30.30R WCI  13
6HR MIN TEMP:  20; 6HR MAX TEMP:  24; 6HR PCP: TRACE;

WEST BEND      CLEAR     18  12  79 NW3       30.30R
JUNEAU         CLEAR     17  12  82 CALM      30.31S
6HR MIN TEMP:  17; 6HR MAX TEMP:  20;

$$

LSZ147-162-221300-
LAKE SUPERIOR

STATION/POSITION TIME  TEMP    WIND        PRES    WAVE
                       AIR SEA DIR/SP/G            HT/PER
                 (UTC) (F)     (DEG/KT/KT) (MB)    (FT/S)
DEVILS ISLAND    1200   21     250/ 15/ 19 1026.0R
SAXON HARBOR     1140   20     230/  5/  8 1025.1R
$$

LMZ867-665-643>646-221300-
LAKE MICHIGAN

STATION/POSITION TIME  TEMP    WIND        PRES    WAVE
                       AIR SEA DIR/SP/G            HT/PER
                 (UTC) (F)     (DEG/KT/KT) (MB)    (FT/S)
N MID LAKE BUOY  1150


USA.gov is the U.S. government's official web portal to all federal, state and local government web resources and services.